This is the latest recevied weather packets stored in our database for station/object KG4GJX. If no packets are shown the sender has not sent any weather packets the latest 1 day(s).
| Time | Temp. | Humidity | Pressure | Rain* | Wind** | Luminosity | Snow |
|---|---|---|---|---|---|---|---|
| 1778018013 | 24.44° C | 43% | 1010.8 hPa | 0 mm | 2.24 m/s, 158° | - | - |
| 1778017351 | 24.44° C | 43% | 1011.1 hPa | 0 mm | 1.34 m/s, 190° | - | - |
| 1778016689 | 24.44° C | 41% | 1011.1 hPa | 0 mm | 0.89 m/s, 166° | - | - |
| 1778016026 | 25° C | 38% | 1011.1 hPa | 0 mm | 3.13 m/s, 174° | - | - |
| 1778015364 | 25.56° C | 37% | 1011.1 hPa | 0 mm | 2.24 m/s, 206° | - | - |
| 1778014701 | 26.11° C | 42% | 1011.1 hPa | 0 mm | 2.68 m/s, 174° | - | - |
| 1778014039 | 26.11° C | 44% | 1011.5 hPa | 0 mm | 4.47 m/s, 180° | - | - |
| 1778013377 | 26.11° C | 42% | 1011.5 hPa | 0 mm | 2.24 m/s, 194° | - | - |
| 1778012714 | 26.11° C | 44% | 1011.8 hPa | 0 mm | 1.34 m/s, 149° | - | - |
| 1778012052 | 25.56° C | 46% | 1012.1 hPa | 0 mm | 2.24 m/s, 114° | - | - |
| 1778011390 | 25.56° C | 43% | 1012.1 hPa | 0 mm | 2.68 m/s, 213° | - | - |
| 1778010727 | 26.67° C | 43% | 1012.1 hPa | 0 mm | 2.68 m/s, 133° | - | - |
| 1778010064 | 26.67° C | 42% | 1012.1 hPa | 0 mm | 2.68 m/s, 152° | - | - |
| 1778009402 | 26.11° C | 43% | 1012.1 hPa | 0 mm | 1.79 m/s, 188° | - | - |
| 1778008739 | 25.56° C | 43% | 1012.5 hPa | 0 mm | 2.24 m/s, 229° | - | - |
| 1778008077 | 26.11° C | 44% | 1012.8 hPa | 0 mm | 2.24 m/s, 147° | - | - |
| 1778007414 | 26.11° C | 47% | 1012.8 hPa | 0 mm | 1.34 m/s, 141° | - | - |
| 1778006752 | 25.56° C | 46% | 1012.8 hPa | 0 mm | 2.24 m/s, 160° | - | - |
| 1778006090 | 25.56° C | 43% | 1013.5 hPa | 0 mm | 2.24 m/s, 122° | - | - |
| 1778005427 | 25.56° C | 45% | 1013.5 hPa | 0 mm | 1.79 m/s, 175° | - | - |
| 1778004764 | 25.56° C | 47% | 1013.5 hPa | 0 mm | 1.79 m/s, 225° | - | - |
| 1778004102 | 25.56° C | 46% | 1013.8 hPa | 0 mm | 3.58 m/s, 173° | - | - |
| 1778003440 | 25° C | 46% | 1014.2 hPa | 0 mm | 2.24 m/s, 195° | - | - |
| 1778002777 | 25° C | 47% | 1014.2 hPa | 0 mm | 0.89 m/s, 202° | - | - |
| 1778002115 | 24.44° C | 48% | 1014.2 hPa | 0 mm | 3.13 m/s, 198° | - | - |
* Rain latest hour (hover to see other rain measurements)
** Current wind speed in m/s (hover to see current wind gust speed)